Voltar ao catálogo

STARLINK-1153

AtivoComunicaçõesVLEO
NORAD 45080·PAYLOAD·🇺🇸 United States

Lançado Jan 29, 2020 de Cape Canaveral Space Force Station

Loading…

Próximas Passagens (próximas 24 horas)

TLE

AtualizadoSource: CelesTrak SupGP

Época: Sep 14, 2026, 21:04 UTC

1 45080C 20006AN  26257.87826389  .00063197  00000+0  12560-2 0  2576
2 45080  53.1529  88.6985 0003134 204.2741 231.2706 15.46338744    16

Acompanhe STARLINK-1153 em tempo real com AllMySat

Download on the App Store